Theta_e
339 350 354 349 337 334 335 338 343 344 344 343 341 339 341 342 339 340 341 342 343 344 342 340 343 344 343 341 340 342 345 346 346 346 346 346 345 345 345 346 345 347 347
338 351 353 347 336 333 331 333 336 342 343 343 341 342 342 341 339 340 340 339 339 329 327 334 339 345 346 347 345 343 344 345 345 346 345 345 345 345 345 345 343 343 341
338 352 352 346 336 333 330 327 330 334 339 340 340 339 338 338 338 339 337 336 329 330 336 340 343 344 346 345 344 343 344 343 345 345 342 343 345 345 345 346 344 341 340
338 349 352 351 336 333 330 327 326 329 333 336 336 334 332 331 333 334 334 337 345 345 345 343 344 345 345 345 344 343 343 343 344 342 342 341 344 344 344 343 343 342 342
339 347 352 352 338 334 330 326 327 328 329 332 334 331 328 329 331 334 338 340 344 345 345 344 342 342 342 343 335 336 340 341 342 342 341 342 341 343 342 343 342 339 340
343 347 352 352 340 335 330 326 328 331 332 332 332 329 331 332 334 336 339 345 346 346 345 342 336 336 337 335 338 339 338 332 337 341 339 340 341 342 342 342 342 340 340
348 347 352 352 341 336 330 327 329 332 334 333 332 335 335 334 335 336 338 341 344 345 336 336 334 336 337 338 338 340 341 335 329 329 334 337 339 336 341 342 341 340 339
349 347 350 350 342 337 331 327 329 332 334 334 334 337 337 336 335 336 338 340 341 341 335 335 336 336 337 338 341 344 343 343 340 323 329 330 337 333 340 337 335 337 338
351 349 349 349 344 338 332 329 329 332 334 335 334 337 338 340 336 337 338 339 341 340 338 337 338 338 339 340 341 341 344 345 344 326 327 330 330 328 338 337 334 334 335
350 350 349 348 347 340 334 331 330 333 336 336 335 337 337 337 338 338 338 339 340 341 340 339 338 338 338 339 340 342 343 341 341 328 328 328 326 326 327 331 329 328 330
347 351 350 348 347 340 334 332 332 335 338 336 337 339 339 338 338 337 337 338 339 339 338 337 337 337 338 339 340 342 344 342 337 333 327 327 325 332 326 325 326 326 326
345 348 350 349 346 341 336 333 332 336 338 337 338 339 338 337 335 335 335 336 336 337 337 337 337 337 338 338 338 342 343 343 338 335 327 324 325 333 329 328 328 328 328
344 346 351 349 346 342 337 335 333 334 336 339 339 338 337 336 334 333 332 333 333 334 335 336 336 336 337 337 337 339 343 343 341 336 328 327 327 331 330 329 331 331 331
345 346 348 348 346 343 339 337 334 333 335 339 338 337 337 335 334 333 331 331 331 332 334 335 335 335 337 337 338 339 341 342 343 338 330 329 331 330 336 332 332 333 332
343 344 348 348 347 346 343 340 337 336 332 337 338 337 335 335 334 333 332 331 333 335 334 334 335 334 335 337 339 339 340 343 343 338 332 331 332 334 334 333 335 334 334
339 341 342 347 346 346 345 342 340 336 332 331 337 337 335 334 334 333 333 333 335 338 339 338 334 333 333 336 340 341 340 342 342 340 337 333 334 335 336 335 338 339 338
337 338 341 344 345 344 345 343 341 340 335 331 332 337 336 335 334 334 335 337 338 339 339 339 340 339 333 334 337 340 342 340 340 339 337 335 337 339 338 338 339 339 341
340 337 336 341 342 342 342 342 340 340 338 335 330 332 336 336 335 334 334 337 339 340 340 340 340 340 335 334 338 340 341 340 339 338 337 337 339 340 341 341 342 345 344
342 339 337 336 334 337 340 340 339 339 340 339 335 332 333 335 336 335 334 336 338 338 339 340 340 341 339 338 337 338 341 341 341 336 336 335 337 340 342 342 343 345 344
340 340 339 336 332 333 334 335 335 334 333 329 327 332 330 332 335 336 337 337 338 340 340 339 338 339 338 338 338 338 339 340 340 338 336 338 339 341 342 343 341 342 342
338 337 338 337 335 334 338 340 340 339 338 337 336 335 335 335 337 338 339 340 340 340 341 339 339 337 338 338 337 338 339 338 339 340 338 338 342 342 342 342 341 341 341
333 336 337 336 337 337 337 338 339 339 338 338 338 339 339 339 340 340 341 340 341 340 339 338 337 337 336 338 337 335 337 337 338 341 340 341 342 343 343 342 342 341 339
331 333 335 336 337 337 337 338 339 341 339 337 337 337 338 338 339 339 339 339 339 338 338 335 335 334 331 331 331 333 334 337 336 338 339 340 338 341 342 342 342 340 338
327 332 334 336 337 338 339 341 342 341 338 336 336 335 334 334 336 335 335 335 335 336 335 334 335 337 333 330 329 330 331 332 333 335 335 337 337 338 339 341 340 340 338
324 326 330 332 334 335 337 337 337 335 332 332 331 330 330 331 332 332 333 332 331 332 332 332 331 331 332 331 329 329 330 333 333 330 334 334 335 336 337 337 338 339 337
321 322 323 326 325 328 330 331 330 327 325 324 323 323 323 324 324 325 326 327 328 329 329 329 329 330 329 330 329 329 329 330 331 331 331 331 332 333 334 335 334 336 337
Wind_Speed
21 31 25 23 25 27 26 26 28 29 29 27 26 25 23 20 18 18 16 13 11 11 12 13 14 16 16 15 15 14 14 16 17 17 17 18 18 19 19 18 19 18 19
32 33 28 25 25 25 26 25 25 26 27 28 28 24 21 19 19 18 15 14 11 10 11 13 14 14 15 16 16 15 16 17 17 17 17 16 16 17 18 17 17 17 18
35 32 30 27 26 24 24 25 24 24 25 26 25 24 22 20 17 16 14 13 12 12 13 14 14 15 16 17 16 16 17 17 16 16 16 16 16 15 16 17 17 18 18
39 32 30 28 28 25 23 23 23 24 24 24 23 22 20 19 18 16 16 15 14 13 14 14 15 16 17 17 16 17 17 16 16 18 17 13 14 14 14 16 16 16 15
36 31 30 28 28 27 25 23 22 22 23 22 21 20 19 19 19 18 17 16 15 14 14 14 15 17 18 18 19 15 13 14 15 15 17 15 13 15 15 16 15 16 15
34 31 27 27 29 27 25 24 23 22 22 21 21 20 19 20 20 19 18 16 15 14 15 15 16 19 19 19 16 14 11 11 12 12 14 15 13 14 14 14 16 14 14
29 29 28 27 29 27 24 23 24 22 22 21 20 19 19 19 20 19 18 16 15 14 15 16 17 17 18 14 11 9 7 8 9 11 14 14 12 11 13 14 14 14 14
29 30 27 26 28 26 24 23 23 22 21 21 20 20 19 19 19 19 17 14 13 14 15 15 17 15 12 9 8 7 6 5 7 10 13 13 12 11 12 13 14 14 14
26 30 28 27 26 25 24 23 22 22 21 20 20 19 19 18 18 17 15 15 15 14 15 15 14 13 11 9 7 5 5 8 9 10 12 14 13 12 11 11 12 13 13
23 29 29 28 27 26 24 22 21 21 20 19 18 18 19 17 16 15 15 15 14 13 14 14 12 11 10 8 7 6 6 7 12 12 13 13 12 12 12 11 11 12 12
20 26 29 30 29 28 25 23 21 20 19 18 17 16 15 15 14 14 14 14 13 13 12 12 10 9 8 7 7 7 8 11 13 12 13 14 13 13 13 13 12 12 11
22 24 28 30 29 28 27 25 23 21 21 20 19 18 16 15 13 13 13 13 13 11 10 10 9 9 9 9 9 10 9 14 15 13 14 15 15 14 14 13 13 12 12
28 25 29 31 30 29 29 26 25 23 22 21 19 18 16 15 13 13 12 13 13 12 11 11 11 11 10 10 11 12 13 14 16 15 17 17 17 16 15 14 14 13 12
30 27 30 33 31 30 29 27 26 25 24 23 21 19 18 16 15 13 13 13 13 12 12 11 12 11 12 12 12 12 15 19 18 18 20 19 18 17 17 15 15 13 12
27 27 27 33 32 31 29 28 27 26 25 25 23 20 19 18 16 15 14 13 13 13 13 12 13 13 15 14 14 17 16 19 21 23 22 21 20 19 18 17 15 14 14
24 30 30 34 33 30 28 29 28 27 25 24 23 22 20 19 18 17 16 15 14 13 12 13 13 15 16 17 16 18 20 19 20 22 22 23 22 21 19 18 17 16 16
26 29 29 32 32 30 28 27 28 27 25 24 25 23 22 21 20 19 18 17 15 14 14 15 16 17 18 19 20 18 21 24 23 21 24 25 24 24 22 20 19 18 17
25 26 28 29 30 30 29 26 24 25 25 25 26 26 25 23 22 21 21 22 19 17 15 16 17 17 20 20 21 23 24 25 26 26 25 26 28 27 25 22 21 20 19
25 26 27 28 30 30 27 25 22 22 22 23 25 26 26 25 24 24 24 24 24 21 18 19 21 22 23 24 24 25 27 28 28 24 28 29 32 31 28 23 22 20 19
21 24 25 27 28 29 25 21 22 20 20 18 22 24 25 26 25 25 25 27 27 25 20 15 18 20 24 25 26 25 26 26 26 24 28 27 31 31 28 23 23 21 19
14 23 23 26 26 25 24 21 20 21 20 18 23 21 22 25 25 25 26 27 28 27 23 16 11 12 17 18 11 10 15 22 23 25 25 27 29 29 27 26 24 21 21
12 14 17 22 23 24 25 21 19 18 17 22 21 19 17 18 20 20 20 25 27 19 16 11 6 4 2 3 1 3 2 7 24 23 25 28 30 29 28 27 26 25 24
14 12 11 13 17 17 19 22 18 14 12 16 13 8 4 4 4 4 7 14 14 14 13 12 13 9 4 12 10 4 3 3 4 13 29 30 29 30 30 30 30 30 27
14 14 13 11 11 11 11 13 15 11 14 8 9 7 4 3 4 3 3 4 7 9 11 14 16 20 16 14 21 19 17 11 3 4 8 24 32 31 32 34 34 33 31
14 15 14 14 12 10 8 9 10 12 13 12 8 6 5 3 4 5 7 7 8 8 10 11 15 17 18 23 24 15 19 17 16 9 3 5 12 27 29 34 39 39 36
15 16 15 15 15 13 12 12 12 12 11 11 9 7 6 5 4 2 0 2 5 7 10 13 15 18 21 22 23 23 24 13 15 17 14 18 17 16 20 29 33 40 41
Wind_Direction
166 159 157 151 150 144 139 137 138 136 139 144 144 143 144 145 143 142 139 137 136 132 127 122 117 113 116 113 110 110 106 108 111 109 108 107 109 107 108 105 106 102 101
161 159 158 155 153 146 141 139 138 139 141 141 142 146 146 148 147 145 143 140 138 134 131 129 123 120 118 113 113 115 115 120 116 112 108 108 108 107 104 104 107 106 107
161 158 157 159 156 150 144 141 142 142 143 145 147 148 148 149 148 148 145 142 135 127 121 119 119 120 120 120 120 118 114 122 114 111 107 108 107 112 110 109 109 106 109
162 160 159 157 159 154 148 144 144 147 148 146 146 146 149 150 150 148 143 137 130 126 120 118 121 121 121 122 122 122 120 119 120 116 105 109 114 114 115 117 116 116 117
161 162 161 158 161 157 152 148 146 147 151 153 151 149 147 145 144 143 140 136 132 128 122 122 128 129 130 129 121 115 118 123 129 128 124 119 125 120 122 121 118 123 125
162 165 160 162 164 159 154 151 150 149 150 152 153 150 148 148 147 144 139 133 131 129 130 132 135 134 132 130 121 113 112 128 141 137 135 134 138 134 133 127 124 126 126
157 163 162 163 166 162 157 153 153 154 153 154 154 151 151 151 147 144 141 138 137 134 136 139 140 141 135 134 130 132 132 132 129 143 144 144 139 141 136 135 131 130 131
153 162 164 166 168 165 160 157 159 158 158 159 158 156 155 153 152 149 146 148 144 142 142 146 142 148 152 156 155 152 157 162 153 148 148 147 144 141 143 140 141 143 140
151 161 166 170 169 168 164 163 164 165 165 166 165 163 162 161 159 159 158 157 153 151 149 152 159 165 171 173 184 187 183 209 189 167 158 156 152 148 148 148 148 150 153
155 164 168 172 169 170 169 167 167 170 171 172 172 170 167 168 168 167 166 165 162 158 157 161 170 178 183 189 197 194 186 174 181 177 171 163 161 156 154 157 156 155 160
163 169 173 174 174 174 172 170 171 173 174 176 176 177 177 177 177 178 176 176 175 169 170 170 177 192 191 198 204 207 205 181 180 186 178 170 168 167 164 163 162 160 161
171 174 176 178 178 177 176 175 175 174 177 180 181 182 183 183 183 185 187 187 186 187 186 188 192 207 204 203 208 204 200 190 190 193 186 181 175 175 176 175 171 168 169
171 178 181 183 184 182 182 181 178 179 181 186 187 187 187 189 191 191 196 200 200 202 207 207 210 217 221 215 215 206 209 203 199 198 193 192 186 182 186 184 183 181 179
173 179 186 188 187 187 189 187 186 186 187 190 192 193 195 197 200 203 206 211 216 218 223 227 230 229 232 224 227 222 216 217 209 204 200 197 194 190 192 195 191 192 192
182 181 186 191 192 192 194 194 194 195 196 195 196 198 201 205 208 211 215 220 225 235 238 240 244 241 240 237 231 230 223 218 214 209 206 202 201 199 198 198 202 198 203
192 192 191 195 196 197 199 201 201 204 206 203 203 205 207 212 217 220 223 228 232 237 246 254 255 255 250 247 243 236 229 220 219 216 214 209 207 206 207 205 205 206 209
199 199 199 199 201 201 206 208 208 210 213 212 211 212 216 219 222 227 233 234 236 243 253 257 257 256 253 246 247 244 241 231 229 224 219 215 214 215 212 211 211 213 214
204 203 200 203 206 207 211 215 215 218 221 223 222 220 222 225 229 233 238 242 245 250 253 257 259 253 250 246 245 245 240 238 231 231 221 229 225 220 220 220 217 221 227
207 205 205 207 208 210 213 219 222 227 232 236 238 236 233 234 237 240 244 249 255 258 263 265 252 254 251 244 246 248 246 241 236 239 236 239 226 222 224 226 231 231 235
197 209 210 207 210 212 215 218 222 226 234 239 249 249 245 243 246 250 254 256 260 265 267 262 249 250 246 247 246 250 250 245 240 238 227 226 220 223 226 222 224 226 229
168 193 202 206 211 210 209 212 214 217 223 241 249 251 249 248 250 254 255 257 261 261 262 249 254 248 248 259 268 241 242 245 244 231 227 230 228 227 223 226 224 226 227
109 168 184 196 207 213 218 220 225 231 236 237 241 243 243 245 247 251 261 265 257 248 234 220 172 136 187 286 238 3 292 239 241 229 225 230 229 230 229 225 227 231 230
96 121 150 171 184 198 213 223 221 215 192 177 175 176 187 224 236 256 264 265 269 244 240 229 219 211 348 326 329 5 314 280 295 228 227 227 233 231 228 231 230 231 231
98 110 115 128 154 168 174 176 178 178 158 165 180 192 211 222 230 245 254 242 247 240 229 231 238 242 223 276 296 281 255 235 296 326 266 237 232 234 233 236 237 235 232
117 111 111 114 115 127 142 141 145 141 150 148 147 145 138 159 190 209 228 247 271 283 276 266 256 241 242 248 248 239 240 250 240 222 255 313 252 240 241 242 244 239 234
126 121 120 118 107 109 111 115 130 132 141 138 130 131 117 102 92 99 168 264 272 265 272 283 287 279 275 274 262 246 238 234 228 225 245 256 276 291 267 254 248 244 242